Waarnemingen

Advertentie
Mijn weer
F16-A, Nederland (6206): temperatuur & dauwpunt: 20.09.2017 14:00:00 - 26.09.2017 14:00:00 (CEST)F16-A, Nederland (6206): windsnelheid & windstoten: 20.09.2017 14:00:00 - 26.09.2017 14:00:00 (CEST)F16-A, Nederland (6206): windrichting: 20.09.2017 14:00:00 - 26.09.2017 14:00:00 (CEST)F16-A, Nederland (6206): luchtdruk: 20.09.2017 14:00:00 - 26.09.2017 14:00:00 (CEST)F16-A, Nederland (6206): zicht: 20.09.2017 14:00:00 - 26.09.2017 14:00:00 (CEST)
Datum & Tijd tt [°C] td [°C] ff [km/u] ff [kn] fx [km/u] fx [kn] dd ppp [hPa] vv [km]
26.09.2017 14:00:00 15,4 12,3 21 11 22 12 OZO 1024,5 10
26.09.2017 13:00:00 15,7 11,9 18 10 22 12 OZO 1024,7 10
26.09.2017 12:00:00 15,6 12,5 21 11 22 12 OZO 1024,3 10
26.09.2017 11:00:00 15,9 13,2 16 9 18 10 OZO 1024,0 10
26.09.2017 10:00:00 15,8 13,2 18 10 18 10 OZO 1023,5 10
26.09.2017 09:00:00 15,5 13,9 15 8 36 19 O 1023,6 6
26.09.2017 08:00:00 15,4 13,7 22 12 22 12 ONO 1023,6 10
26.09.2017 07:00:00 16,0 13,3 13 7 18 10 OZO 1023,2 10
26.09.2017 06:00:00 16,0 13,8 24 13 25 14 ONO 1022,9 10
26.09.2017 05:00:00 15,9 14,0 24 13 25 14 ONO 1022,8 10
26.09.2017 04:00:00 16,0 13,6 26 14 25 14 ONO 1022,9 10
26.09.2017 03:00:00 16,1 13,7 26 14 25 14 O 1023,0 10
26.09.2017 02:00:00 16,3 13,8 26 14 29 16 O 1023,1 10
26.09.2017 01:00:00 16,3 14,4 18 10 22 12 O 1023,4 10
26.09.2017 00:00:00 16,2 14,4 21 11 32 18 O 1023,6 10
25.09.2017 23:00:00 16,1 14,0 31 17 32 18 ONO 1023,7 10
25.09.2017 22:00:00 16,1 14,3 24 13 29 16 O 1023,7 10
25.09.2017 21:00:00 16,0 14,1 28 15 32 18 O 1023,7 10
25.09.2017 20:00:00 16,1 13,5 16 9 18 10 OZO 1023,7 10
25.09.2017 19:00:00 16,2 13,4 16 9 18 10 OZO 1023,5 10
25.09.2017 18:00:00 15,9 13,7 13 7 14 8 OZO 1023,4 8
25.09.2017 17:00:00 15,9 13,6 16 9 18 10 OZO 1023,3 9
25.09.2017 16:00:00 15,8 13,5 15 8 18 10 ZO 1023,2 9
25.09.2017 15:00:00 15,9 13,5 16 9 22 12 OZO 1023,1 9
25.09.2017 14:00:00 16,1 13,3 21 11 22 12 OZO 1023,2 10
25.09.2017 13:00:00 16,2 12,6 16 9 25 14 OZO 1023,5 10
25.09.2017 12:00:00 16,0 13,6 21 11 25 14 ZO 1023,5 10
25.09.2017 11:00:00 16,0 13,8 18 10 22 12 ZO 1023,5 9
25.09.2017 10:00:00 16,2 14,4 15 8 22 12 OZO 1023,1 7
25.09.2017 09:00:00 16,1 14,4 16 9 22 12 OZO 1023,3 8
25.09.2017 08:00:00 16,0 14,3 22 12 22 12 OZO 1023,1 9
25.09.2017 07:00:00 16,1 14,2 21 11 22 12 OZO 1022,7 10
25.09.2017 06:00:00 15,9 14,0 21 11 22 12 OZO 1022,6 10
25.09.2017 05:00:00 15,9 14,1 18 10 18 10 OZO 1023,0 10
25.09.2017 04:00:00 16,0 14,0 18 10 22 12 ZO 1023,3 10
25.09.2017 03:00:00 16,0 13,6 24 13 25 14 ZO 1023,6 10
25.09.2017 02:00:00 15,9 13,9 24 13 25 14 OZO 1023,7 10
25.09.2017 01:00:00 16,0 13,2 26 14 25 14 OZO 1024,0 10
25.09.2017 00:00:00 15,9 12,6 26 14 29 16 OZO 1024,1 10
24.09.2017 23:00:00 15,9 12,0 28 15 29 16 OZO 1024,2 10
24.09.2017 22:00:00 16,0 11,9 28 15 25 14 OZO 1024,1 10
24.09.2017 21:00:00 15,9 12,0 28 15 25 14 OZO 1023,9 10
24.09.2017 20:00:00 16,0 12,5 24 13 25 14 OZO 1023,7 10
24.09.2017 19:00:00 16,1 12,3 26 14 25 14 OZO 1023,7 10
24.09.2017 18:00:00 16,0 12,5 24 13 25 14 OZO 1023,6 9
24.09.2017 17:00:00 16,0 11,9 24 13 22 12 OZO 1023,9 10
24.09.2017 16:00:00 15,9 11,6 16 9 18 10 OZO 1024,3 10
24.09.2017 15:00:00 15,8 11,2 16 9 18 10 OZO 1024,4 10
24.09.2017 14:00:00 15,7 10,9 16 9 18 10 ZZO 1024,5 10
24.09.2017 13:00:00 15,5 10,8 18 10 22 12 ZO 1024,2 10
24.09.2017 12:00:00 15,6 11,4 21 11 22 12 ZO 1024,1 10
24.09.2017 11:00:00 15,3 11,0 22 12 25 14 ZZO 1024,2 10
24.09.2017 10:00:00 15,3 10,4 21 11 22 12 ZO 1023,9 10
24.09.2017 09:00:00 15,1 10,6 18 10 22 12 ZO 1023,6 10
24.09.2017 08:00:00 14,9 9,9 16 9 18 10 ZO 1023,4 10
24.09.2017 07:00:00 14,9 9,9 16 9 18 10 ZO 1023,3 10
24.09.2017 06:00:00 14,9 9,8 15 8 14 8 ZO 1023,3 10
24.09.2017 05:00:00 14,8 9,6 15 8 14 8 ZO 1023,4 10
24.09.2017 04:00:00 14,8 9,9 13 7 14 8 ZO 1023,6 10
24.09.2017 03:00:00 14,9 10,2 13 7 18 10 - 1023,5 10
24.09.2017 02:00:00 15,1 10,1 16 9 22 12 ZO 1023,7 10
24.09.2017 01:00:00 15,2 10,1 18 10 22 12 ZZO 1023,8 10
24.09.2017 00:00:00 15,3 10,2 15 8 22 12 ZZO 1023,8 10
23.09.2017 23:00:00 15,5 9,7 16 9 18 10 ZO 1024,0 10
23.09.2017 22:00:00 15,6 10,2 15 8 18 10 - 1024,2 10
23.09.2017 21:00:00 15,8 10,8 15 8 14 8 ZZO 1024,0 10
23.09.2017 20:00:00 15,8 10,8 15 8 18 10 ZZO 1023,8 10
23.09.2017 19:00:00 15,9 10,9 15 8 14 8 Z 1023,8 10
23.09.2017 18:00:00 16,1 10,7 16 9 18 10 Z 1023,6 10
23.09.2017 17:00:00 15,9 10,7 16 9 18 10 Z 1023,7 10
23.09.2017 16:00:00 15,9 10,9 18 10 18 10 Z 1024,1 10
23.09.2017 15:00:00 15,9 11,1 21 11 22 12 Z 1024,4 10
23.09.2017 14:00:00 16,1 11,4 21 11 22 12 Z 1024,5 10
23.09.2017 13:00:00 15,9 11,2 22 12 22 12 Z 1024,3 10
23.09.2017 12:00:00 15,8 11,2 18 10 18 10 Z 1024,3 10
23.09.2017 11:00:00 15,7 11,3 16 9 22 12 Z 1024,2 10
23.09.2017 10:00:00 15,6 11,5 18 10 22 12 ZZO 1024,0 10
23.09.2017 09:00:00 15,3 11,2 16 9 18 10 ZZO 1023,6 10
23.09.2017 08:00:00 14,9 10,4 15 8 18 10 Z 1023,6 10
23.09.2017 07:00:00 14,7 9,9 13 7 14 8 Z 1023,0 10
23.09.2017 06:00:00 14,6 8,9 11 6 14 8 Z 1022,9 10
23.09.2017 05:00:00 14,5 9,0 11 6 14 8 - 1023,0 10
23.09.2017 04:00:00 14,2 8,7 9 5 11 6 - 1023,1 10
23.09.2017 03:00:00 14,1 8,4 9 5 11 6 ZZW 1023,1 10
23.09.2017 02:00:00 14,0 8,8 8 4 11 6 ZW 1023,1 10
23.09.2017 01:00:00 14,0 9,0 8 4 7 4 WZW 1022,7 10
23.09.2017 00:00:00 14,2 9,2 9 5 11 6 W 1022,5 10
22.09.2017 23:00:00 14,2 8,9 9 5 11 6 W 1022,6 10
22.09.2017 22:00:00 14,4 9,3 11 6 14 8 W 1022,2 10
22.09.2017 21:00:00 14,6 9,5 9 5 14 8 W 1021,8 10
22.09.2017 20:00:00 14,9 10,0 9 5 14 8 WNW 1021,5 10
22.09.2017 19:00:00 16,0 9,7 15 8 18 10 WNW 1021,0 10
22.09.2017 18:00:00 16,3 10,1 13 7 18 10 W 1020,8 10
22.09.2017 17:00:00 15,8 9,9 13 7 18 10 WNW 1020,7 10
22.09.2017 16:00:00 15,6 10,2 13 7 18 10 WNW 1020,4 10
22.09.2017 15:00:00 15,4 10,3 15 8 18 10 WNW 1020,2 10
22.09.2017 14:00:00 15,9 10,4 18 10 22 12 WNW 1020,1 10
22.09.2017 13:00:00 15,4 10,6 16 9 18 10 WNW 1020,0 10
22.09.2017 12:00:00 15,1 10,9 15 8 18 10 WNW 1019,9 10
22.09.2017 11:00:00 15,1 11,6 15 8 18 10 NW 1019,6 10
22.09.2017 10:00:00 15,1 11,6 15 8 14 8 NW 1019,4 10
22.09.2017 09:00:00 15,0 11,7 15 8 18 10 NW 1018,9 10
22.09.2017 08:00:00 14,8 11,7 22 12 25 14 WNW 1018,5 10
22.09.2017 07:00:00 14,6 12,9 21 11 25 14 NW 1018,0 9
22.09.2017 06:00:00 14,2 13,3 9 5 14 8 - 1017,9 10
22.09.2017 05:00:00 14,6 13,4 11 6 18 10 WZW 1017,8 9
22.09.2017 04:00:00 14,8 13,7 22 12 40 21 WZW 1017,8 10
22.09.2017 03:00:00 16,6 13,1 42 23 47 25 Z 1017,5 10
22.09.2017 02:00:00 16,6 13,0 44 24 47 25 Z 1017,5 10
22.09.2017 01:00:00 16,6 13,0 48 26 47 25 ZZO 1017,3 10
22.09.2017 00:00:00 16,8 13,1 52 28 54 29 Z 1017,2 10
21.09.2017 23:00:00 17,0 12,3 54 29 54 29 Z 1017,2 10
21.09.2017 22:00:00 16,7 13,1 50 27 50 27 Z 1017,1 10
21.09.2017 21:00:00 16,6 13,1 46 25 47 25 Z 1017,0 10
21.09.2017 20:00:00 16,5 12,7 46 25 47 25 Z 1016,8 10
21.09.2017 19:00:00 16,4 12,8 48 26 47 25 Z 1016,5 10
21.09.2017 18:00:00 16,4 12,8 48 26 47 25 Z 1016,3 10
21.09.2017 17:00:00 16,3 12,9 46 25 47 25 Z 1016,4 10
21.09.2017 16:00:00 16,3 12,8 44 24 47 25 Z 1016,4 10
21.09.2017 15:00:00 16,2 13,2 44 24 43 23 Z 1016,5 10
21.09.2017 14:00:00 16,3 13,2 42 23 40 21 Z 1016,6 10
21.09.2017 13:00:00 16,3 13,2 41 22 43 23 Z 1016,7 10
21.09.2017 12:00:00 16,4 13,2 41 22 43 23 ZZW 1016,8 10
21.09.2017 11:00:00 16,4 12,9 44 24 43 23 ZZW 1016,8 10
21.09.2017 10:00:00 16,4 12,4 35 19 40 21 Z 1016,7 10
21.09.2017 09:00:00 16,2 12,4 37 20 40 21 ZZW 1016,5 10
21.09.2017 08:00:00 16,0 11,5 34 18 32 18 ZZW 1016,4 10
21.09.2017 07:00:00 15,9 11,1 35 19 36 19 ZZW 1016,2 10
21.09.2017 06:00:00 15,9 11,6 37 20 36 19 ZZW 1016,1 10
21.09.2017 05:00:00 15,9 12,4 37 20 36 19 ZZW 1016,2 10
21.09.2017 04:00:00 16,0 13,1 35 19 36 19 ZZW 1016,4 10
21.09.2017 03:00:00 16,1 13,8 28 15 32 18 ZZW 1016,5 10
21.09.2017 02:00:00 16,3 13,7 24 13 29 16 - 1016,6 10
21.09.2017 01:00:00 16,2 14,1 29 16 32 18 - 1016,5 10
21.09.2017 00:00:00 16,3 13,9 31 17 36 19 - 1016,3 10
20.09.2017 23:00:00 16,2 13,5 29 16 32 18 ZZW 1016,5 10
20.09.2017 22:00:00 16,0 12,9 29 16 29 16 ZZW 1016,6 10
20.09.2017 21:00:00 15,7 12,2 29 16 32 18 ZZW 1016,8 10
20.09.2017 20:00:00 15,4 12,1 28 15 29 16 ZW 1016,7 10
20.09.2017 19:00:00 15,2 12,1 26 14 29 16 ZW 1016,6 10
20.09.2017 18:00:00 14,8 10,7 28 15 29 16 ZW 1016,6 10
20.09.2017 17:00:00 15,0 11,0 28 15 29 16 ZW 1016,7 10
20.09.2017 16:00:00 15,2 10,7 29 16 29 16 ZW 1016,9 10
20.09.2017 15:00:00 15,4 10,7 29 16 32 18 ZW 1016,9 10
20.09.2017 14:00:00 15,4 10,8 29 16 29 16 ZZW 1017,1 10

tt = temperatuur
td = dauwpunt
ff = windsnelheid
fx = windstoten
dd = windrichting
ppp = luchtdruk
vv = zicht

Weerstations in de omgeving